Regional Weather Roundup
Issued by NWS

Home | Current Version | Previous Version | Text Only | Print | Product List | Glossary Off
Versions: 1 2 3 4 5 6 7 8 9 10 11 12 13 14 15 16 17 18 19 20 21 22 23 24 25 26 27 28 29 30 31 32 33 34 35 36 37 38 39 40 41 42 43 44 45 46 47 48 49 50

000
ASUS43 KIND 302309
RWRIN

WEATHER ROUNDUP FOR INDIANA
NATIONAL WEATHER SERVICE INDIANAPOLIS IN
700 PM EDT SAT APR 30 2016

NOTE: "FAIR" INDICATES FEW OR NO CLOUDS BELOW 12,000 FEET WITH NO
SIGNIFICANT WEATHER AND/OR OBSTRUCTIONS TO VISIBILITY.

* - STATION DOES NOT REPORT WEATHER SUCH AS PRECIPITATION OR FOG.

+ - STATION NOT QUALITY CONTROLLED BY THE NATIONAL WEATHER SERVICE.
    USE DATA WITH CAUTION...ESPECIALLY DEWPOINT AND RELATIVE
    HUMIDITY OBSERVATIONS.

INZ001>003-010>013-019-020-010000-
NORTHWEST INDIANA

CITY           SKY/WX    TMP DP  RH WIND       PRES   REMARKS
GARY /AIRPORT/ RAIN      48  48 100 E18       29.90S
KNOX *+        CLOUDY    46  45  93 E12       29.89S
LA PORTE +     LGT RAIN N/A N/A N/A E14       29.91R
MICHIGAN CITY+ LGT RAIN  46  46 100 E9        29.91S
MONTICELLO +   LGT RAIN  51  47  88 E8        29.85F
RENSSELAER +   LGT RAIN  50  48  93 E16       29.86S
VALPARAISO     LGT RAIN  48  47  96 E13       29.89F FOG

$$

LMZ046-743>745-010000-
SOUTHERN LAKE MICHIGAN

STATION/POSITION TIME  TEMP    WIND        PRES    WAVE
                       AIR SEA DIR/SP/G            HT
                 (UTC) (F)     (DEG/KT/KT) (MB)    (FT)
BURNS HARBOR     2207   48      60/ 16/ 18 1012.9F
MICHIGAN CITY    2200   48      40/ 12/ 13   N/A

$$

INZ004-005-014>016-021>024-010000-
NORTH CENTRAL INDIANA

CITY           SKY/WX    TMP DP  RH WIND       PRES   REMARKS
GOSHEN         LGT RAIN  48  45  89 E14G24    29.91F FOG
LOGANSPORT +   LGT RAIN  50  50 100 E9        29.88S
PERU/GRISSOM   LGT RAIN  51  51 100 E9        29.86S
ROCHESTER +    LGT RAIN  50  50 100 E10G17    29.89R
SOUTH BEND     LGT RAIN  47  45  93 E14       29.92F FOG
WARSAW +       RAIN      46  46 100 E13       29.90S

$$

INZ006>009-017-018-025>027-010000-
NORTHEAST INDIANA

CITY           SKY/WX    TMP DP  RH WIND       PRES   REMARKS
ANGOLA *+      CLOUDY    46  36  66 E12       29.95F
AUBURN +       DRIZZLE   46  45  93 E13       29.93F
FORT WAYNE     LGT RAIN  50  48  93 E12       29.92S
HUNTINGTON +   RAIN     N/A N/A N/A E12       29.91S

$$

INZ028-029-035-036-043>045-051>053-010000-
WEST CENTRAL INDIANA

CITY           SKY/WX    TMP DP  RH WIND       PRES   REMARKS
CRAWFORDSVL +  CLOUDY    57  57 100 SE7       29.84S
GREENCASTLE +  CLOUDY    59  59 100 S9        29.84S
LAFAYETTE      CLOUDY    54  53  97 E8        29.84S
TERRE HAUTE    CLOUDY    64  61  90 S9        29.82S

$$

INZ030>032-037>040-046>048-054>057-064-065-010000-
CENTRAL INDIANA

CITY           SKY/WX    TMP DP  RH WIND       PRES   REMARKS
CP ATTERBURY + CLOUDY    61  59  94 SE8       29.87R
COLUMBUS       CLOUDY    59  59 100 SE12      29.87F
FISHERS *+     CLOUDY    57  57 100 S7        29.86R
FRANKFORT +      N/A     56  56 100 SE8       29.86F FOG
GREENWOOD *+   CLOUDY    59  59 100 SE10      29.86F
INDIANAPOLIS   CLOUDY    60  57  89 SE13G22   29.84R
-EAGLE CREEK   CLOUDY    60  58  92 S9        29.85R
KOKOMO *+      CLOUDY    52  48  87 E10       29.87F
MARION +       CLOUDY    52  50  94 E9        29.89S
SHELBYVILLE    CLOUDY    62  58  86 SE12      29.86F
ZIONSVILLE +   CLOUDY    57  56  96 SE7       29.86S FOG

$$

INZ033-034-041-042-049-050-058-059-010000-
EAST CENTRAL INDIANA

CITY           SKY/WX    TMP DP  RH WIND       PRES   REMARKS
MUNCIE         CLOUDY    57  53  86 SE9       29.87F

$$

INZ060-061-067>069-081>083-085>088-010000-
SOUTHWEST INDIANA

CITY           SKY/WX    TMP DP  RH WIND       PRES   REMARKS
EVANSVILLE     CLOUDY    69  64  84 S6        29.83S
HUNTINGBURG *+ CLOUDY    66  63  88 SE7       29.85S
WASHINGTON +   PTSUNNY   66  65  98 S13       29.82F

$$

INZ062-063-066-070>080-084-089>092-010000-
SOUTH CENTRAL AND SOUTHEAST INDIANA

CITY           SKY/WX    TMP DP  RH WIND       PRES   REMARKS
BEDFORD +      CLOUDY    63  63 100 SE6       29.85F
BLOOMINGTON    CLOUDY    62  59  90 S9        29.84R
MADISON *+     CLOUDY    63  59  88 E6        29.92F
NORTH VERNON + LGT RAIN N/A N/A N/A SE3       29.89F
SEYMOUR +      CLOUDY    63  61  94 SE12      29.87F

$$





USA.gov is the U.S. government's official web portal to all federal, state and local government web resources and services.